Regional Weather Roundup
Issued by NWS

Home | Current Version | Previous Version | Text Only | Print | Product List | Glossary Off
Versions: 1 2 3 4 5 6 7 8 9 10 11 12 13 14 15 16 17 18 19 20 21 22 23 24 25 26 27 28 29 30 31 32 33 34 35 36 37 38 39 40 41 42 43 44 45 46 47 48 49 50

000
ASUS43 KFSD 272102
RWRSD

WEATHER ROUNDUP FOR SOUTH DAKOTA
NATIONAL WEATHER SERVICE SIOUX FALLS SD
400 PM CDT THU AUG 27 2015

NOTE: "FAIR" INDICATES FEW OR NO CLOUDS BELOW 12,000 FEET WITH NO
SIGNIFICANT WEATHER AND/OR OBSTRUCTIONS TO VISIBILITY.


SDZ001>005-009-010-012>017-272200-
NORTHWEST AND NORTH CENTRAL SOUTH DAKOTA

CITY           SKY/WX    TMP DP  RH WIND       PRES   REMARKS
BUFFALO          N/A     86  63  45 NW6       29.90S
FAITH            N/A     74  59  59 SE12      29.99S
MOBRIDGE       FAIR      76  68  76 SW3       29.95S
$$

SDZ012>016-024>037-041>051-057-063-072>074-272200-
SOUTHWEST AND SOUTH CENTRAL SOUTH DAKOTA

CITY           SKY/WX    TMP DP  RH WIND       PRES   REMARKS
RAPID CTY ARPT FAIR      82  58  43 N14       30.02S
PIERRE         FAIR      75  66  73 NE13      29.93F
CUSTER         FAIR      73  50  44 NE7       30.16S
PHILIP         LGT RAIN  69  65  86 NE8       29.97F
PINE RIDGE     FAIR      74  57  55 N14       30.03R
WINNER         FAIR      82  67  60 NE15      29.89F
$$

SDZ004>011-016>023-039-040-272200-
NORTHEAST SOUTH DAKOTA

CITY           SKY/WX    TMP DP  RH WIND       PRES   REMARKS
ABERDEEN       FAIR      76  68  76 S10       29.95S
WATERTOWN      FAIR      73  66  78 S9        29.98F
BROOKINGS      FAIR      77  68  73 SE13      30.01F
$$

SDZ017-020-022-023-036>040-048>070-272200-
SOUTHEAST SOUTH DAKOTA

CITY           SKY/WX    TMP DP  RH WIND       PRES   REMARKS
SIOUX FALLS    CLOUDY    76  67  73 E10       29.98R
HURON          FAIR      80  69  69 E9        29.93S
CHAMBERLAIN    FAIR      80  68  67 SE13G18   29.90F
MITCHELL       FAIR      81  69  67 E12       29.92F
YANKTON        FAIR      81  68  65 SE13      29.90S
$$

ABBREVIATIONS USED IN REMARKS
   TC - TEMPERATURE IN CELSIUS
  WCI - WIND CHILL INDEX
   HX - HEAT INDEX
  VSB - VISIBILITY




USA.gov is the U.S. government's official web portal to all federal, state and local government web resources and services.